When you browse on this site, cookies collect data to enhance your experience and personalize the content and advertising you see.
Visit our Privacy Policy to learn more. By continuing to use the site, you agree to this use of cookies and data.

Meteo orario Franceville

Oggi, 10 Luglio, Venerdi

Tempo Temperatura Precipitazioni Vento Pressione Umidità
00:00 +26°C° 1.5 mm 1 m/s 731 mm Hg 88%
01:00 +25°C° 0 mm 1 m/s 731 mm Hg 87%
02:00 +25°C° 0.5 mm 1 m/s 731 mm Hg 89%
03:00 +25°C° 0.5 mm 1 m/s 731 mm Hg 92%
04:00 +24°C° 0.5 mm 1 m/s 731 mm Hg 94%
05:00 +24°C° 0.2 mm 1 m/s 731 mm Hg 93%
06:00 +24°C° 0.2 mm 1 m/s 731 mm Hg 93%
07:00 +24°C° 0.2 mm 1 m/s 732 mm Hg 93%
08:00 +25°C° 0 mm 1 m/s 732 mm Hg 89%
09:00 +26°C° 0 mm 1 m/s 732 mm Hg 85%
10:00 +26°C° 0 mm 2 m/s 732 mm Hg 81%
11:00 +27°C° 0 mm 2 m/s 732 mm Hg 77%
12:00 +28°C° 0 mm 2 m/s 732 mm Hg 73%
13:00 +29°C° 0 mm 1 m/s 731 mm Hg 69%
14:00 +29°C° 0 mm 1 m/s 731 mm Hg 66%
15:00 +30°C° 0 mm 1 m/s 730 mm Hg 63%
16:00 +30°C° 0 mm 1 m/s 729 mm Hg 61%
17:00 +29°C° 0 mm 1 m/s 730 mm Hg 66%
18:00 +28°C° 0 mm 1 m/s 730 mm Hg 71%
19:00 +27°C° 0 mm 1 m/s 730 mm Hg 76%
20:00 +26°C° 0 mm 1 m/s 731 mm Hg 78%
21:00 +26°C° 0 mm 1 m/s 731 mm Hg 79%
22:00 +26°C° 0 mm 1 m/s 732 mm Hg 81%
23:00 +25°C° 0 mm 1 m/s 732 mm Hg 83%

Domani, 11 Luglio, Sabato

Tempo Temperatura Precipitazioni Vento Pressione Umidità
00:00 +25°C° 0 mm 1 m/s 732 mm Hg 85%
01:00 +24°C° 0 mm 1 m/s 732 mm Hg 86%
02:00 +24°C° 0 mm 1 m/s 731 mm Hg 87%
03:00 +24°C° 0 mm 1 m/s 731 mm Hg 88%
04:00 +24°C° 0 mm 1 m/s 731 mm Hg 89%
05:00 +24°C° 0 mm 1 m/s 731 mm Hg 89%
06:00 +22°C° 0 mm 0 m/s 732 mm Hg 88%
07:00 +22°C° 0 mm 0 m/s 732 mm Hg 87%
08:00 +25°C° 0 mm 1 m/s 732 mm Hg 81%
09:00 +27°C° 0 mm 1 m/s 733 mm Hg 75%
10:00 +28°C° 0 mm 1 m/s 733 mm Hg 69%
11:00 +29°C° 0 mm 1 m/s 733 mm Hg 66%
12:00 +29°C° 0 mm 1 m/s 732 mm Hg 63%
13:00 +30°C° 0 mm 1 m/s 732 mm Hg 60%
14:00 +30°C° 0 mm 1 m/s 731 mm Hg 60%
15:00 +30°C° 0 mm 1 m/s 731 mm Hg 60%
16:00 +30°C° 0 mm 1 m/s 730 mm Hg 60%
17:00 +29°C° 0 mm 1 m/s 730 mm Hg 65%
18:00 +26°C° 0 mm 0 m/s 731 mm Hg 70%
19:00 +25°C° 0 mm 0 m/s 731 mm Hg 74%
20:00 +25°C° 0.1 mm 0 m/s 731 mm Hg 76%
21:00 +24°C° 0.1 mm 0 m/s 732 mm Hg 78%
22:00 +24°C° 0.1 mm 0 m/s 732 mm Hg 81%
23:00 +24°C° 0 mm 0 m/s 732 mm Hg 82%

Dopodomani, 12 Luglio, Domenica

Tempo Temperatura Precipitazioni Vento Pressione Umidità
00:00 +25°C° 0 mm 1 m/s 732 mm Hg 83%
01:00 +25°C° 0 mm 1 m/s 732 mm Hg 83%
02:00 +25°C° 0 mm 1 m/s 731 mm Hg 85%
03:00 +24°C° 0 mm 1 m/s 731 mm Hg 86%
04:00 +22°C° 0 mm 0 m/s 731 mm Hg 88%
05:00 +24°C° 0 mm 1 m/s 731 mm Hg 88%
06:00 +24°C° 0 mm 1 m/s 732 mm Hg 87%
07:00 +24°C° 0 mm 1 m/s 732 mm Hg 87%
08:00 +26°C° 0 mm 1 m/s 733 mm Hg 79%
09:00 +27°C° 0 mm 1 m/s 733 mm Hg 71%
10:00 +29°C° 0 mm 1 m/s 733 mm Hg 63%
11:00 +30°C° 0 mm 1 m/s 733 mm Hg 61%
12:00 +30°C° 0 mm 1 m/s 732 mm Hg 59%
13:00 +31°C° 0 mm 1 m/s 732 mm Hg 57%
14:00 +30°C° 0 mm 1 m/s 731 mm Hg 58%
15:00 +30°C° 0 mm 1 m/s 731 mm Hg 59%
16:00 +30°C° 0 mm 1 m/s 730 mm Hg 60%
17:00 +29°C° 0.1 mm 1 m/s 730 mm Hg 65%
18:00 +28°C° 0.1 mm 1 m/s 731 mm Hg 71%
19:00 +27°C° 0.1 mm 1 m/s 731 mm Hg 76%
20:00 +26°C° 0.2 mm 1 m/s 732 mm Hg 78%
21:00 +26°C° 0.2 mm 1 m/s 732 mm Hg 80%
22:00 +25°C° 0.2 mm 1 m/s 733 mm Hg 83%
23:00 +24°C° 0 mm 1 m/s 732 mm Hg 83%

13 Luglio, Lunedi

Tempo Temperatura Precipitazioni Vento Pressione Umidità
00:00 +24°C° 0 mm 1 m/s 732 mm Hg 84%
01:00 +24°C° 0 mm 1 m/s 732 mm Hg 85%
02:00 +23°C° 0 mm 1 m/s 732 mm Hg 86%
03:00 +21°C° 0 mm 0 m/s 732 mm Hg 86%
04:00 +21°C° 0 mm 0 m/s 731 mm Hg 87%
05:00 +21°C° 0 mm 0 m/s 732 mm Hg 87%
06:00 +21°C° 0 mm 0 m/s 732 mm Hg 87%
07:00 +21°C° 0 mm 0 m/s 732 mm Hg 86%
08:00 +25°C° 0 mm 1 m/s 732 mm Hg 78%
09:00 +27°C° 0 mm 1 m/s 733 mm Hg 69%
10:00 +29°C° 0 mm 1 m/s 733 mm Hg 60%
11:00 +30°C° 0 mm 1 m/s 732 mm Hg 57%
12:00 +31°C° 0 mm 1 m/s 732 mm Hg 54%
13:00 +32°C° 0 mm 1 m/s 731 mm Hg 52%
14:00 +32°C° 0 mm 1 m/s 731 mm Hg 53%
15:00 +31°C° 0 mm 1 m/s 730 mm Hg 54%
16:00 +31°C° 0 mm 1 m/s 729 mm Hg 55%
17:00 +30°C° 0.1 mm 1 m/s 729 mm Hg 62%
18:00 +29°C° 0.1 mm 1 m/s 730 mm Hg 68%
19:00 +25°C° 0.1 mm 0 m/s 730 mm Hg 75%
20:00 +27°C° 0.8 mm 1 m/s 731 mm Hg 78%
21:00 +26°C° 0.8 mm 1 m/s 731 mm Hg 81%
22:00 +25°C° 0.8 mm 1 m/s 732 mm Hg 84%
23:00 +25°C° 0.1 mm 1 m/s 732 mm Hg 83%

14 Luglio, Martedi

Tempo Temperatura Precipitazioni Vento Pressione Umidità
00:00 +25°C° 0.1 mm 1 m/s 731 mm Hg 83%
01:00 +24°C° 0.1 mm 1 m/s 731 mm Hg 82%
02:00 +24°C° 0 mm 1 m/s 731 mm Hg 84%
03:00 +23°C° 0 mm 1 m/s 731 mm Hg 86%
04:00 +23°C° 0 mm 1 m/s 731 mm Hg 87%
05:00 +23°C° 0 mm 1 m/s 731 mm Hg 87%
06:00 +23°C° 0 mm 1 m/s 731 mm Hg 87%
07:00 +23°C° 0 mm 1 m/s 732 mm Hg 87%
08:00 +24°C° 0 mm 1 m/s 732 mm Hg 81%
09:00 +24°C° 0 mm 0 m/s 732 mm Hg 75%
10:00 +25°C° 0 mm 0 m/s 733 mm Hg 69%
11:00 +26°C° 0 mm 0 m/s 732 mm Hg 65%
12:00 +27°C° 0 mm 0 m/s 731 mm Hg 62%
13:00 +28°C° 0 mm 0 m/s 731 mm Hg 59%
14:00 +28°C° 0 mm 0 m/s 730 mm Hg 57%
15:00 +31°C° 0 mm 1 m/s 730 mm Hg 55%
16:00 +31°C° 0 mm 1 m/s 729 mm Hg 53%
17:00 +30°C° 0 mm 1 m/s 729 mm Hg 58%
18:00 +29°C° 0 mm 1 m/s 729 mm Hg 64%
19:00 +25°C° 0 mm 0 m/s 730 mm Hg 70%
20:00 +25°C° 0 mm 0 m/s 730 mm Hg 73%
21:00 +26°C° 0 mm 1 m/s 731 mm Hg 75%
22:00 +26°C° 0 mm 1 m/s 731 mm Hg 78%
23:00 +25°C° 0 mm 1 m/s 731 mm Hg 79%

15 Luglio, Mercoledi

Tempo Temperatura Precipitazioni Vento Pressione Umidità
00:00 +23°C° 0 mm 0 m/s 731 mm Hg 80%
01:00 +22°C° 0 mm 0 m/s 731 mm Hg 81%
02:00 +24°C° 0 mm 1 m/s 731 mm Hg 82%
03:00 +23°C° 0 mm 1 m/s 731 mm Hg 83%
04:00 +23°C° 0 mm 1 m/s 730 mm Hg 84%
05:00 +23°C° 0 mm 1 m/s 731 mm Hg 83%
06:00 +23°C° 0 mm 1 m/s 731 mm Hg 83%
07:00 +21°C° 0 mm 0 m/s 731 mm Hg 83%
08:00 +22°C° 0 mm 0 m/s 732 mm Hg 78%
09:00 +24°C° 0 mm 0 m/s 732 mm Hg 72%
10:00 +25°C° 0 mm 0 m/s 733 mm Hg 67%
11:00 +26°C° 0 mm 0 m/s 732 mm Hg 63%
12:00 +28°C° 0 mm 0 m/s 732 mm Hg 58%
13:00 +31°C° 0 mm 1 m/s 731 mm Hg 53%
14:00 +29°C° 0 mm 0 m/s 731 mm Hg 52%
15:00 +30°C° 0 mm 0 m/s 730 mm Hg 51%
16:00 +30°C° 0 mm 0 m/s 730 mm Hg 50%
17:00 +28°C° 0.1 mm 0 m/s 730 mm Hg 56%
18:00 +29°C° 0.1 mm 1 m/s 731 mm Hg 63%
19:00 +27°C° 0.1 mm 1 m/s 731 mm Hg 70%
20:00 +27°C° 0.2 mm 1 m/s 731 mm Hg 73%
21:00 +26°C° 0.2 mm 1 m/s 732 mm Hg 77%
22:00 +25°C° 0.2 mm 1 m/s 732 mm Hg 81%
23:00 +25°C° 0 mm 1 m/s 732 mm Hg 83%
Mostrare altro